Regional Weather Roundup
Issued by NWS

Home | Current Version | Previous Version | Graphics & Text | Print | Product List | Glossary On
Versions: 1 2 3 4 5 6 7 8 9 10 11 12 13 14 15 16 17 18 19 20 21 22 23 24 25 26 27 28 29 30 31 32 33 34 35 36 37 38 39 40 41 42 43 44 45 46 47 48 49 50
000
ASUS45 KBOU 181007
RWRCO

WEATHER ROUNDUP FOR COLORADO
NATIONAL WEATHER SERVICE DENVER/BOULDER CO
400 AM MDT THU SEP 18 2014

NOTE: "FAIR" INDICATES FEW OR NO CLOUDS BELOW 12000 FEET WITH NO
SIGNIFICANT WEATHER AND/OR OBSTRUCTIONS TO VISIBILITY.

COZ001>005-013-030-031-181100-
...NORTHWEST COLORADO...

CITY           SKY/WX    TMP DP  RH WIND       PRES   REMARKS
CRAIG          CLEAR     41  37  86 CALM      30.12S
HAYDEN         CLEAR     52  37  58 E10       30.14S
MEEKER         CLEAR     46  38  73 E3        30.13F
MOUNT WERNER   NOT AVBL
STEAMBOAT SPGS CLEAR     46  39  77 CALM      30.18R
WALDEN         CLEAR     36  32  87 SE5       30.26F
$$

COZ006>008-011-181100-
...WEST CENTRAL VALLEYS...

CITY           SKY/WX    TMP DP  RH WIND       PRES   REMARKS
GRAND JUNCTION CLEAR     60  40  47 SE8       30.02R
MONTROSE       CLEAR     55  43  63 E6        30.11S
EAGLE          CLEAR     46  37  71 CALM      30.21S
RIFLE          CLEAR     52  40  63 SW5       30.09R
DELTA          CLEAR     57  43  58 CALM      30.07S
NUCLA          CLEAR     54  43  66 E7        30.15S
$$

COZ017>023-064>068-181100-
...SOUTHWEST COLORADO...

CITY           SKY/WX    TMP DP  RH WIND       PRES   REMARKS
DURANGO        CLEAR     47  45  93 N5        30.17F
CORTEZ         CLEAR     46  45  96 CALM      30.12F
PAGOSA SPRINGS CLEAR     46  42  87 CALM      30.23F
TELLURIDE      NOT AVBL
WOLF CREEK PAS CLEAR     43  32  65 E5        30.50F
$$

COZ009-010-012-014-032>034-037-058>063-181100-
...CENTRAL COLORADO...

CITY           SKY/WX    TMP DP  RH WIND       PRES   REMARKS
ASPEN          CLEAR     48  35  60 SW9       30.23F
BUENA VISTA    CLEAR     46  35  64 CALM      30.28S
COPPER MTN     CLEAR     52  30  43 S17       30.53F
BERTHOUD PASS  FAIR      43  41  93 MISG      30.57F
COTTONWOOD PAS CLEAR     57  32  38 W5        30.39S
GUNNISON       CLEAR     45  34  65 CALM      30.29S
KREMMLING      CLEAR     37  32  81 CALM      30.26F
LEADVILLE      CLEAR     35  30  82 CALM      30.39S
MONARCH PASS   CLEAR     45  32  61 E3        30.63F
SALIDA         CLEAR     52  38  58 W8        30.33S
SUNLIGHT       CLEAR     54  32  43 CALM      30.44F
WILKERSON PASS NOT AVBL
$$

COZ069>075-181100-
...SAN LUIS VALLEY/SANGRE DE CRISTO MOUNTAINS...

CITY           SKY/WX    TMP DP  RH WIND       PRES   REMARKS
ALAMOSA        PTCLDY    39  35  86 SE3       30.23F
LA VETA PASS   NOT AVBL
SAGUACHE       CLEAR     50  34  53 N10       30.27F
$$

COZ035-036-038>040-181100-
...NORTHERN COLORADO FRONT RANGE...

CITY           SKY/WX    TMP DP  RH WIND       PRES   REMARKS
DENVER INTL AP PTCLDY    60  42  51 SW12      30.04F
DMNS CITY PARK   N/A     60  44  55 S6        30.04F
AURORA         PTCLDY    59  42  53 S7        30.07F
FRONT RANGE AP CLEAR     61  45  55 S9        30.06S
ERIE MUNI ARPT CLEAR     51  45  81 CALM      30.03F
BOULDER MUN AP CLEAR     59  43  55 W5        30.04S
CENTENNIAL     PTCLDY    58  42  55 SE3       30.08F
BROOMFIELD     CLEAR     61  39  44 CALM      30.06F
FORT COLLINS   CLEAR     55  45  67 N6        30.04F
LONGMONT       CLEAR     49  44  81 CALM      30.05F HAZE
$$

COZ041-046-047-076>085-087-088-181100-
...PIKES PEAK/PALMER DIVIDE AND SOUTHERN FOOTHILLS...

CITY           SKY/WX    TMP DP  RH WIND       PRES   REMARKS
COLO. SPRINGS  CLEAR     57  38  48 N10       30.11F
A. F. ACADEMY  CLEAR     50  38  64 N8        30.14F
ELLICOTT       NOT AVBL
FALCON         CLEAR     56  39  51 N5        30.17S
FORT CARSON    CLEAR     59  39  48 N12       30.08F
LIMON          CLEAR     55  42  61 NW7       30.06F
MONUMENT HILL  CLEAR     48  37  66 SW7       30.16F
TRINIDAD       CLEAR     57  40  52 W13       30.09R
$$

COZ042>045-048>051-090-091-181100-
...NORTHEAST COLORADO...

CITY           SKY/WX    TMP DP  RH WIND       PRES   REMARKS
GREELEY ARPT     N/A    N/A N/A N/A MISG        N/A
AKRON          CLEAR     61  44  53 W8        29.99F
BURLINGTON     MOCLDY    55  53  93 SE3       29.98S
WRAY           FOG      N/A N/A N/A CALM      29.96F VSB 1/4
STERLING       CLEAR     55  50  82 CALM      29.96F
HOLYOKE        CLOUDY    64  63  94 SE8       29.97S FOG
FORT MORGAN    CLEAR     53  45  75 CALM      30.01S
$$

COZ086-089-092>099-181100-
...SOUTHEAST COLORADO...

CITY           SKY/WX    TMP DP  RH WIND       PRES   REMARKS
PUEBLO         CLEAR     55  40  56 W6        30.01S
LA JUNTA       CLEAR     57  44  62 SE5       29.98S
LAMAR          CLEAR     50  48  93 S7        29.94S
SPRINGFIELD      N/A     56  53  90 SW9       29.99F
$$


USA.gov is the U.S. government's official web portal to all federal, state and local government web resources and services.